CAPE
0 0 0 0 0 0 0 0 0 0 0 0 127 448 640 952 974 761 640 582 500 260 34 42 17 1 0 0 0 0 0 0 0 0 0 0 0 0 0 0 0 0 0
0 0 0 0 0 0 0 0 0 0 0 0 9 133 655 701 317 396 326 17 0 1 1 2 1 2 7 12 1 0 0 0 0 0 0 0 0 0 0 0 0 0 0
0 0 0 0 0 0 0 0 0 0 0 31 87 62 470 316 0 0 0 1 0 0 0 0 0 0 1 2 2 2 1 0 0 0 0 0 0 0 0 0 0 0 0
0 0 0 0 0 0 0 0 0 0 57 39 96 216 82 0 0 0 0 0 0 0 0 0 0 0 0 0 1 1 0 0 0 0 0 0 0 0 0 0 0 0 0
0 0 0 0 0 0 0 0 0 1 39 200 136 1 0 0 1 1 0 0 0 0 1 1 0 1 1 0 0 0 0 0 0 0 0 0 0 0 0 0 0 0 0
2 0 0 1 0 0 0 0 0 0 21 356 156 0 0 3 0 2 1 0 0 0 1 1 2 7 4 2 4 2 0 0 0 0 0 0 0 0 0 0 0 0 0
2 5 3 0 2 0 0 0 0 0 66 313 46 1 3 1 1 0 3 1 0 0 1 2 3 4 0 1 1 0 0 0 0 0 0 0 0 0 0 0 0 0 0
8 10 2 28 0 0 0 0 0 0 19 0 2 1 1 3 5 0 1 0 0 0 0 0 0 0 0 0 0 0 0 0 0 0 0 0 0 0 0 0 0 0 0
2 1 7 6 1 0 0 0 0 0 0 1 5 4 1 5 2 0 0 0 0 0 0 0 0 0 0 0 0 0 0 0 0 0 0 0 0 0 0 0 0 0 0
8 19 11 2 5 3 0 0 1 1 2 2 4 2 3 2 0 0 0 0 0 0 0 0 0 0 0 0 0 0 0 0 0 0 0 0 0 0 0 0 0 0 0
5 24 7 1 1 0 6 1 1 1 2 2 7 8 5 5 1 0 0 0 0 0 0 0 0 0 0 0 0 0 0 0 0 0 0 0 0 0 0 0 0 0 0
19 17 7 1 4 9 0 1 1 1 3 3 1 2 3 0 0 0 0 0 0 0 0 0 0 0 0 0 0 0 0 0 0 0 0 0 0 0 0 0 0 0 0
10 4 5 5 1 1 0 0 2 5 1 1 0 0 0 0 0 0 0 0 0 0 0 0 0 0 0 0 0 0 0 0 0 0 0 0 0 0 0 0 0 0 0
5 5 5 0 1 1 2 1 1 1 0 0 0 0 0 0 0 0 0 0 0 0 0 0 0 0 0 0 0 0 0 0 0 0 0 0 0 0 0 0 0 0 0
3 1 0 0 0 0 0 1 1 0 0 1 0 0 0 0 0 0 0 0 0 0 0 0 0 0 0 0 0 0 0 0 0 0 0 0 0 0 0 0 0 0 0
1 1 1 0 0 0 0 0 0 0 0 0 0 0 0 0 0 0 0 0 0 0 0 0 0 0 0 0 0 0 0 0 0 0 0 0 0 0 0 0 0 0 0
0 1 1 0 0 0 0 0 0 0 0 0 0 0 0 0 0 0 0 0 0 0 0 0 0 0 0 0 0 0 0 0 0 0 0 0 0 0 0 0 0 0 0
1 3 1 0 1 0 0 0 0 0 0 0 0 0 0 0 0 0 0 0 0 0 0 0 0 0 0 0 0 0 0 0 0 0 0 0 0 0 0 0 0 0 0
1 2 1 1 0 0 0 0 0 0 0 0 0 0 0 0 0 0 0 0 0 0 0 0 0 0 0 0 0 0 0 0 0 0 0 0 0 0 0 0 0 0 0
1 0 0 0 0 1 3 0 0 0 0 0 0 0 0 0 0 0 0 0 0 0 0 0 0 0 0 0 0 0 0 0 0 0 0 0 0 0 0 0 0 0 0
0 1 0 0 0 0 0 0 0 0 0 0 0 0 0 0 0 0 0 0 0 0 0 0 0 0 0 0 0 0 0 0 0 0 0 0 0 0 0 0 0 0 0
1 0 0 0 0 0 0 0 0 0 0 0 0 0 0 0 0 0 0 0 0 0 0 0 0 0 0 0 0 0 0 0 0 0 0 0 0 0 0 0 0 0 0
0 1 0 0 0 0 0 0 0 0 0 0 0 0 0 0 0 0 0 0 0 0 0 0 0 0 0 0 0 0 0 0 0 0 0 0 0 0 0 0 0 0 0
0 0 0 0 0 0 0 0 0 0 0 0 0 0 0 0 0 0 0 0 0 0 0 0 0 0 0 0 0 0 0 0 0 0 0 0 0 0 0 0 0 0 0
0 0 0 0 0 0 0 0 0 0 0 0 0 0 0 0 0 0 0 0 0 0 0 0 0 0 0 0 0 0 0 0 0 0 0 0 0 0 0 0 0 0 0
0 0 0 0 0 0 0 0 0 0 0 0 0 0 0 0 0 0 0 0 0 0 0 0 0 0 0 0 0 0 0 0 0 0 0 0 0 0 0 0 0 0 0
CIN
0 0 0 0 0 0 0 0 0 0 0 0 -138 -77 -78 -69 -90 -123 -125 -132 -151 -217 -354 -293 -57 -17 0 0 0 0 0 0 0 0 0 0 0 0 0 0 0 0 0
0 0 0 0 0 0 0 0 0 0 0 0 -103 -84 -53 -108 -223 -210 -228 -439 -16 0 0 0 0 0 0 0 0 0 0 0 0 0 0 0 0 0 0 0 0 0 0
0 0 0 0 0 0 0 0 0 0 0 -100 -108 -139 -94 -182 0 0 0 0 0 0 0 0 0 0 0 0 0 0 0 0 0 0 0 0 0 0 0 0 0 0 0
0 0 0 0 0 0 0 0 0 0 -97 -94 -136 -107 -206 0 0 0 0 0 0 0 0 0 0 0 0 0 0 0 0 0 0 0 0 0 0 0 0 0 0 0 0
0 0 0 0 0 0 0 0 0 -56 -94 -74 -110 -23 0 0 0 0 0 0 0 0 0 0 0 0 0 0 0 0 0 0 0 0 0 0 0 0 0 0 0 0 0
-2 0 0 -6 0 0 0 0 0 0 -114 -67 -115 0 0 0 0 0 0 0 0 0 0 0 0 0 0 0 0 0 0 0 0 0 0 0 0 0 0 0 0 0 0
-4 0 -1 0 -2 0 0 0 0 0 -88 -85 -188 0 0 0 0 0 0 0 0 0 0 0 0 0 0 0 0 0 0 0 0 0 0 0 0 0 0 0 0 0 0
-1 0 -2 0 -3 0 0 0 0 0 -137 0 0 0 0 0 0 0 0 0 0 0 0 0 0 0 0 0 0 0 0 0 0 0 0 0 0 0 0 0 0 0 0
-2 0 -1 0 -2 0 0 0 -13 0 0 0 0 0 0 0 0 0 0 0 0 0 0 0 0 0 0 0 0 0 0 0 0 0 0 0 0 0 0 0 0 0 0
0 0 0 0 0 0 0 -2 0 0 0 0 0 0 0 0 0 0 0 0 0 0 0 0 0 0 0 0 0 0 0 0 0 0 0 0 0 0 0 0 0 0 0
-1 0 -1 0 0 0 -8 0 0 0 0 0 0 0 0 0 0 0 0 0 0 0 0 0 0 0 0 0 0 0 0 0 0 0 0 0 0 0 0 0 0 0 0
0 0 0 -1 0 -8 0 0 0 0 0 0 0 0 0 0 0 0 0 0 0 0 0 0 0 0 0 0 0 0 0 0 0 0 0 0 0 0 0 0 0 0 0
0 0 0 0 0 0 0 0 0 0 0 0 0 0 0 0 0 0 0 0 0 0 0 0 0 0 0 0 0 0 0 0 0 0 0 0 0 0 0 0 0 0 0
0 0 0 0 0 0 0 0 0 0 0 0 0 0 0 0 0 0 0 0 0 0 0 0 0 0 0 0 0 0 0 0 0 0 0 0 0 0 0 0 0 0 0
0 0 0 0 0 0 0 0 0 0 0 -1 0 0 0 0 0 0 0 0 0 0 0 0 0 0 0 0 0 0 0 0 0 0 0 0 0 0 0 0 0 0 0
0 0 0 0 0 0 0 0 0 0 0 0 0 0 0 0 0 0 0 0 0 0 0 0 0 0 0 0 0 0 0 0 0 0 0 0 0 0 0 0 0 0 0
0 0 0 0 0 0 0 0 0 0 0 0 0 0 0 0 0 0 0 0 0 0 0 0 0 0 0 0 0 0 0 0 0 0 0 0 0 0 0 0 0 0 0
0 0 0 0 0 -1 -1 0 0 0 0 0 0 0 0 0 0 0 0 0 0 0 0 0 0 0 0 0 0 0 0 0 0 0 0 0 0 0 0 0 0 0 0
0 0 0 -1 -1 -1 -1 0 0 0 0 0 0 0 0 0 0 0 0 0 0 0 0 0 0 0 0 0 0 0 0 0 0 0 0 0 0 0 0 0 0 0 0
0 -1 0 0 -1 -1 -1 0 0 0 0 0 0 0 0 0 0 0 0 0 0 0 0 0 0 0 0 0 0 0 0 0 0 0 0 0 0 0 0 0 0 0 0
-1 -2 0 0 0 -5 -2 0 0 0 0 0 0 0 0 0 0 0 0 0 0 0 0 0 0 0 0 0 0 0 0 0 0 0 0 0 0 0 0 0 0 0 0
-1 -1 -2 -2 0 0 0 0 0 0 0 0 0 0 0 0 0 0 0 0 0 0 0 0 0 0 0 0 0 0 0 0 0 0 0 0 0 0 0 0 0 0 0
-2 -2 -1 0 0 0 0 0 0 0 0 0 0 0 0 0 0 0 0 0 0 0 0 0 0 0 0 0 0 0 0 0 0 0 0 0 0 0 0 0 0 0 0
0 0 0 0 0 0 0 0 0 0 0 0 0 0 0 0 0 0 0 0 0 0 0 0 0 0 0 0 0 0 0 0 0 0 0 0 0 0 0 0 0 0 0
0 0 0 0 0 0 0 0 0 0 0 0 0 0 0 0 0 0 0 0 0 0 0 0 0 0 0 0 0 0 0 0 0 0 0 0 0 0 0 0 0 0 0
0 0 0 0 0 0 0 0 0 0 0 0 0 0 0 0 0 0 0 0 0 0 0 0 0 0 0 0 0 0 0 0 0 0 0 0 0 0 0 0 0 0 0
Wind_Speed
5 6 7 9 12 12 9 11 11 7 8 6 6 10 12 7 7 4 4 6 6 3 4 4 2 4 8 7 6 6 7 6 6 3 2 3 3 5 5 4 5 4 4
6 7 9 9 10 11 11 11 13 11 8 6 6 9 10 7 2 4 6 5 8 8 9 10 10 6 9 9 6 1 7 4 5 13 4 3 3 5 4 6 4 4 4
5 6 10 10 10 10 12 11 13 12 8 7 6 9 4 3 5 7 8 8 8 7 7 8 9 10 10 10 10 10 9 7 6 11 7 3 4 3 4 4 4 4 6
7 8 9 10 11 10 11 11 12 11 5 5 4 4 3 5 7 8 7 8 8 8 8 8 9 12 14 15 14 10 11 9 10 8 5 3 4 3 3 4 3 5 5
8 10 11 10 10 11 11 10 11 8 4 1 3 2 2 4 4 6 6 10 12 13 11 10 9 14 18 15 12 13 13 8 10 4 4 2 2 3 4 3 2 1 3
10 11 12 11 10 9 11 9 9 7 3 3 3 2 2 4 11 13 12 13 12 13 14 13 12 18 20 23 23 20 14 10 8 2 3 2 1 1 1 1 2 3 3
12 12 10 14 7 10 11 9 8 6 0 4 5 6 8 9 19 20 19 12 12 12 12 12 12 11 12 10 15 13 15 12 9 9 6 3 2 2 2 1 1 2 2
13 11 10 12 9 11 11 8 6 1 6 6 8 10 11 9 21 25 24 15 14 13 13 14 13 11 6 6 12 11 11 8 6 4 6 5 3 3 3 1 2 3 2
10 12 13 13 9 12 9 6 1 7 9 10 9 11 13 10 18 22 21 16 15 15 11 10 8 8 8 6 11 12 9 5 5 6 4 3 5 6 3 2 3 4 3
12 9 10 9 10 11 7 5 6 11 12 11 13 11 16 13 14 19 18 13 14 10 8 8 14 10 9 12 7 6 8 1 1 3 3 4 7 6 7 2 2 5 2
9 10 8 9 10 8 4 8 11 13 15 15 14 12 14 14 13 18 17 12 10 11 10 7 6 12 11 11 7 2 6 4 3 5 5 5 5 5 4 3 4 4 3
9 8 9 10 9 6 12 11 14 15 17 14 15 13 10 11 19 20 22 19 16 12 9 5 4 13 10 10 8 10 12 7 3 3 6 4 3 3 2 3 3 4 4
8 9 8 8 9 12 14 13 12 13 13 12 12 11 9 9 11 21 22 23 21 13 10 8 9 9 12 15 16 15 11 6 3 7 5 1 1 2 1 1 2 3 4
7 6 4 13 13 12 9 9 10 11 12 13 11 10 10 10 9 9 11 12 14 9 11 8 9 12 15 12 11 10 7 6 5 3 2 2 1 2 4 3 3 4 5
6 12 14 12 15 15 13 9 9 8 9 13 11 11 12 11 7 10 9 7 6 10 7 8 7 9 9 7 8 8 7 6 6 3 5 4 3 3 4 4 3 2 5
13 11 11 11 12 12 14 15 27 23 21 17 14 12 9 16 15 14 14 14 11 4 4 8 8 7 7 7 7 6 5 8 4 5 5 3 4 3 4 4 2 4 3
15 13 12 13 11 12 12 15 16 18 26 23 23 20 18 17 15 11 10 7 8 10 8 8 8 7 7 6 5 4 3 4 4 5 6 6 5 5 3 3 4 3 3
16 21 12 11 11 12 12 12 13 15 14 12 16 14 16 16 13 10 6 1 10 8 8 8 7 6 5 5 4 4 5 5 5 6 6 5 4 3 4 4 4 4 4
13 12 12 11 11 15 14 14 14 15 14 11 9 10 9 7 10 14 12 8 9 8 8 9 7 6 5 5 4 4 3 5 6 5 5 4 5 4 5 4 5 7 5
15 23 17 13 13 14 13 14 13 14 13 11 9 6 3 10 9 8 7 9 10 9 9 8 7 7 6 5 6 7 8 8 6 4 5 6 6 4 5 5 5 4 4
11 13 20 14 13 13 12 13 12 12 13 9 5 5 8 8 8 8 9 9 10 9 8 8 7 6 5 6 5 5 7 6 5 6 5 5 5 5 4 5 5 5 4
12 12 12 13 13 13 13 12 12 11 8 7 5 5 8 9 9 10 10 10 9 9 7 8 7 6 6 5 5 5 5 6 6 5 5 5 5 6 5 5 5 5 5
14 16 15 13 13 15 13 10 8 6 7 7 9 9 10 10 9 10 9 9 9 8 7 6 6 5 4 4 4 5 5 4 4 3 5 5 5 6 5 5 5 5 4
15 17 17 14 11 10 7 6 7 10 10 10 10 10 10 9 9 10 9 8 8 7 5 5 5 5 5 7 6 5 4 3 2 4 6 6 6 6 5 5 4 6 4
13 13 10 7 7 9 10 10 10 10 10 10 10 10 9 9 10 9 8 7 6 6 6 4 4 8 11 10 8 8 7 6 6 5 5 6 8 8 5 4 5 4 7
7 7 10 8 8 9 9 10 10 9 10 9 9 8 9 9 8 8 6 6 6 6 6 6 9 11 10 8 9 9 9 9 7 7 5 5 5 5 5 6 8 5 6
Wind_Direction
308 307 307 304 309 307 305 308 294 277 277 291 295 302 291 250 249 232 235 243 222 115 88 164 211 257 205 172 166 171 175 154 151 161 133 124 108 100 71 41 40 16 8
302 312 301 296 300 304 304 306 307 291 282 281 299 307 292 298 15 130 118 102 106 113 126 125 102 95 46 5 3 319 163 175 142 137 114 91 93 79 83 65 20 356 30
286 290 295 297 299 298 299 302 306 296 283 307 323 315 278 171 106 99 121 128 118 109 109 109 116 109 96 96 66 39 20 18 76 108 91 339 64 59 63 57 6 349 42
289 288 286 289 289 292 293 295 299 286 293 321 9 314 195 128 129 138 135 113 92 71 67 81 100 108 106 90 76 59 53 59 56 53 45 11 57 13 45 75 11 26 29
291 291 288 284 283 288 296 293 294 281 285 278 128 252 143 108 133 134 88 91 96 93 81 76 82 96 97 105 117 112 82 65 71 17 85 25 25 34 48 310 60 342 358
278 273 281 272 275 287 292 291 296 278 289 166 153 185 111 75 82 82 89 97 89 88 84 75 79 88 96 99 103 104 118 117 106 162 63 117 124 83 42 321 49 45 11
274 270 284 289 280 292 293 285 288 291 44 101 89 76 63 78 95 93 90 86 89 87 90 91 81 68 62 83 92 100 105 125 132 129 128 154 94 167 181 49 69 148 150
272 264 280 279 286 293 284 276 289 6 79 80 80 82 86 93 99 97 91 85 80 78 85 94 95 85 79 106 96 87 82 79 92 132 122 137 145 153 84 150 228 123 68
279 276 277 266 273 278 283 289 197 98 81 80 87 91 97 91 103 104 101 93 91 87 86 85 89 90 101 72 90 93 70 50 74 91 96 149 113 98 84 79 4 71 43
257 267 269 268 263 269 271 123 110 91 87 88 83 86 92 94 89 99 104 106 102 96 83 82 57 85 60 56 71 90 102 49 70 64 30 25 34 53 104 64 126 71 44
265 263 261 264 264 250 152 125 111 101 95 85 87 79 82 89 89 92 98 100 102 101 92 85 84 71 69 83 88 100 101 100 73 95 65 46 64 69 67 52 50 101 109
253 258 258 254 259 156 126 119 112 106 100 96 95 86 79 90 96 90 88 86 92 93 87 66 54 84 93 81 78 79 78 82 59 66 67 32 61 78 54 75 80 86 85
240 244 252 269 124 121 120 114 108 108 106 108 99 100 99 99 93 97 94 93 93 94 89 76 59 74 83 72 67 64 65 62 66 57 40 15 50 205 154 346 8 20 44
231 230 182 98 92 88 92 102 112 115 112 111 115 115 116 112 107 105 103 103 103 89 73 90 93 87 76 67 61 56 57 56 57 68 13 32 82 23 39 351 20 22 37
131 104 93 88 88 82 68 73 91 83 104 129 127 131 133 120 116 116 110 110 87 81 62 92 85 77 71 70 62 54 49 49 45 21 50 39 34 41 15 351 353 58 57
95 91 96 96 93 93 93 81 58 69 72 78 91 110 97 107 119 103 104 101 110 109 93 92 80 80 82 73 69 61 42 47 30 39 35 41 47 44 16 345 356 49 54
97 96 94 94 98 103 102 103 100 74 71 77 88 92 99 112 101 89 72 74 72 83 88 85 86 85 79 69 63 64 68 37 41 40 42 29 23 30 357 3 355 21 33
91 92 93 96 99 101 103 105 108 110 105 95 71 87 74 77 72 56 14 118 91 80 92 94 90 85 82 73 57 50 36 47 47 38 32 24 17 27 22 9 1 6 28
92 92 95 94 93 98 101 100 102 106 106 106 105 83 82 84 102 70 72 86 93 87 81 73 70 71 63 55 48 51 52 50 47 34 15 14 21 38 21 8 7 15 38
86 98 100 99 102 101 104 111 109 108 104 100 91 68 48 84 80 63 68 82 80 77 74 72 60 53 61 65 60 46 42 35 32 19 19 24 19 31 28 18 23 7 19
92 93 102 97 101 105 105 102 105 105 105 102 80 60 37 85 90 85 80 72 75 75 75 69 61 53 46 56 56 58 51 40 27 24 18 9 8 19 10 27 25 17 13
94 94 93 96 101 102 106 104 105 105 107 107 72 53 77 84 82 80 76 73 73 72 70 76 65 55 45 41 41 56 55 42 28 10 14 17 21 22 26 21 14 18 7
100 105 101 102 104 103 102 100 95 93 97 93 92 91 84 82 82 79 77 72 68 65 52 63 72 64 47 53 51 54 63 38 355 333 32 26 28 23 24 26 16 18 5
105 107 113 112 100 99 94 92 91 86 93 93 91 88 88 88 87 84 81 79 74 63 56 65 66 76 67 52 42 36 36 11 0 32 48 45 36 21 32 25 19 23 12
108 108 107 103 98 101 100 95 96 97 96 95 93 92 93 91 89 87 84 80 82 82 68 66 65 57 52 44 37 34 23 25 38 28 42 49 50 39 33 28 22 19 21
89 86 97 93 92 95 100 100 98 98 98 98 96 97 97 94 94 96 94 92 92 90 90 72 61 57 49 37 29 27 29 29 28 19 42 56 54 42 42 38 31 21 16